TimeEDT,TemperatureF,Dew PointF,Humidity,Sea Level PressureIn,VisibilityMPH,Wind Direction,Wind SpeedMPH,Gust SpeedMPH,PrecipitationIn,Events,Conditions,WindDirDegrees,DateUTC
12:15 AM,73.4,73.4,100,29.90,5.0,Calm,Calm,-,N/A,,Clear,0,2013-10-07 04:15:00
12:35 AM,73.4,73.4,100,29.89,7.0,Calm,Calm,-,N/A,,Clear,0,2013-10-07 04:35:00
12:55 AM,73.4,73.4,100,29.89,7.0,Calm,Calm,-,N/A,,Mostly Cloudy,0,2013-10-07 04:55:00
1:15 AM,73.4,73.4,100,29.88,7.0,Calm,Calm,-,N/A,,Overcast,0,2013-10-07 05:15:00
1:35 AM,73.4,73.4,100,29.87,10.0,Calm,Calm,-,N/A,,Mostly Cloudy,0,2013-10-07 05:35:00
1:55 AM,73.4,73.4,100,29.87,3.0,Calm,Calm,-,N/A,,Scattered Clouds,0,2013-10-07 05:55:00
2:15 AM,73.4,73.4,100,29.87,3.0,Calm,Calm,-,N/A,,Scattered Clouds,0,2013-10-07 06:15:00
2:35 AM,73.4,73.4,100,29.86,2.5,Calm,Calm,-,N/A,,Mostly Cloudy,0,2013-10-07 06:35:00
2:55 AM,73.4,73.4,100,29.86,5.0,Calm,Calm,-,N/A,,Overcast,0,2013-10-07 06:55:00
3:15 AM,73.4,73.4,100,29.86,7.0,Calm,Calm,-,N/A,,Overcast,0,2013-10-07 07:15:00
3:35 AM,75.2,75.2,100,29.86,7.0,Calm,Calm,-,N/A,,Overcast,0,2013-10-07 07:35:00
3:55 AM,75.2,75.2,100,29.85,7.0,Calm,Calm,-,N/A,,Overcast,0,2013-10-07 07:55:00
4:15 AM,75.2,75.2,100,29.84,7.0,Calm,Calm,-,N/A,,Overcast,0,2013-10-07 08:15:00
4:35 AM,75.2,75.2,100,29.84,7.0,Calm,Calm,-,N/A,,Overcast,0,2013-10-07 08:35:00
4:55 AM,75.2,75.2,100,29.84,7.0,Calm,Calm,-,N/A,,Overcast,0,2013-10-07 08:55:00
5:15 AM,75.2,75.2,100,29.84,7.0,Calm,Calm,-,N/A,,Overcast,0,2013-10-07 09:15:00
5:35 AM,75.2,75.2,100,29.84,7.0,Calm,Calm,-,N/A,,Mostly Cloudy,0,2013-10-07 09:35:00
5:55 AM,75.2,75.2,100,29.84,7.0,Calm,Calm,-,N/A,,Overcast,0,2013-10-07 09:55:00
6:15 AM,75.2,75.2,100,29.84,7.0,Calm,Calm,-,N/A,,Scattered Clouds,0,2013-10-07 10:15:00
6:35 AM,73.4,73.4,100,29.84,5.0,Calm,Calm,-,N/A,,Clear,0,2013-10-07 10:35:00
6:55 AM,73.4,73.4,100,29.84,0.5,Calm,Calm,-,N/A,Fog,Fog,0,2013-10-07 10:55:00
7:15 AM,73.4,73.4,100,29.84,0.8,Calm,Calm,-,N/A,,Mostly Cloudy,0,2013-10-07 11:15:00
7:35 AM,73.4,73.4,100,29.84,5.0,Calm,Calm,-,N/A,,Mostly Cloudy,0,2013-10-07 11:35:00
7:55 AM,73.4,73.4,100,29.85,5.0,Calm,Calm,-,N/A,,Mostly Cloudy,0,2013-10-07 11:55:00
8:15 AM,75.2,75.2,100,29.85,7.0,Calm,Calm,-,N/A,,Overcast,0,2013-10-07 12:15:00
8:35 AM,75.2,75.2,100,29.86,10.0,Calm,Calm,-,N/A,,Overcast,0,2013-10-07 12:35:00
8:55 AM,75.2,75.2,100,29.87,10.0,Calm,Calm,-,N/A,,Overcast,0,2013-10-07 12:55:00
9:15 AM,77.0,77.0,100,29.88,10.0,Calm,Calm,-,N/A,,Overcast,0,2013-10-07 13:15:00
9:35 AM,77.0,77.0,100,29.88,10.0,Calm,Calm,-,N/A,,Overcast,0,2013-10-07 13:35:00
9:55 AM,77.0,77.0,100,29.88,10.0,Calm,Calm,-,N/A,,Overcast,0,2013-10-07 13:55:00
10:15 AM,77.0,77.0,100,29.88,10.0,Calm,Calm,-,N/A,,Mostly Cloudy,0,2013-10-07 14:15:00
10:35 AM,78.8,77.0,94,29.87,10.0,Calm,Calm,-,N/A,,Scattered Clouds,0,2013-10-07 14:35:00
10:55 AM,78.8,75.2,89,29.88,10.0,Calm,Calm,-,N/A,,Scattered Clouds,0,2013-10-07 14:55:00
11:15 AM,78.8,75.2,89,29.87,10.0,Calm,Calm,-,N/A,,Scattered Clouds,0,2013-10-07 15:15:00
11:35 AM,80.6,75.2,84,29.87,10.0,Calm,Calm,-,N/A,,Clear,0,2013-10-07 15:35:00
11:55 AM,80.6,75.2,84,29.86,10.0,Calm,Calm,-,N/A,,Clear,0,2013-10-07 15:55:00
12:15 PM,80.6,75.2,84,29.86,10.0,Calm,Calm,-,N/A,,Scattered Clouds,0,2013-10-07 16:15:00
12:35 PM,80.6,75.2,84,29.85,10.0,Calm,Calm,-,N/A,,Scattered Clouds,0,2013-10-07 16:35:00
12:55 PM,82.4,73.4,74,29.85,10.0,West,3.5,-,N/A,,Clear,280,2013-10-07 16:55:00
1:15 PM,84.2,73.4,70,29.84,10.0,NW,5.8,-,N/A,,Scattered Clouds,310,2013-10-07 17:15:00
1:35 PM,84.2,73.4,70,29.83,10.0,Calm,Calm,-,N/A,,Clear,0,2013-10-07 17:35:00
1:55 PM,86.0,71.6,62,29.82,10.0,NW,5.8,-,N/A,,Scattered Clouds,320,2013-10-07 17:55:00
2:15 PM,86.0,71.6,62,29.82,10.0,Calm,Calm,-,N/A,,Scattered Clouds,0,2013-10-07 18:15:00
2:35 PM,86.0,71.6,62,29.81,10.0,Calm,Calm,-,N/A,,Clear,0,2013-10-07 18:35:00
2:55 PM,84.2,71.6,66,29.80,10.0,NW,5.8,-,N/A,,Clear,320,2013-10-07 18:55:00
3:15 PM,84.2,71.6,66,29.80,10.0,North,4.6,-,N/A,,Clear,10,2013-10-07 19:15:00
3:35 PM,84.2,71.6,66,29.80,10.0,North,5.8,-,N/A,,Clear,360,2013-10-07 19:35:00
3:55 PM,84.2,69.8,62,29.80,10.0,NNW,6.9,-,N/A,,Clear,330,2013-10-07 19:55:00
4:15 PM,82.4,69.8,66,29.81,10.0,NW,5.8,-,N/A,,Clear,320,2013-10-07 20:15:00
4:35 PM,82.4,71.6,70,29.80,10.0,Calm,Calm,-,N/A,,Clear,0,2013-10-07 20:35:00
4:55 PM,82.4,71.6,70,29.80,10.0,Calm,Calm,-,N/A,,Clear,0,2013-10-07 20:55:00
5:15 PM,82.4,71.6,70,29.80,10.0,Calm,Calm,-,N/A,,Clear,0,2013-10-07 21:15:00
5:35 PM,80.6,69.8,70,29.81,10.0,Calm,Calm,-,N/A,,Clear,0,2013-10-07 21:35:00
5:55 PM,80.6,69.8,70,29.81,10.0,Calm,Calm,-,N/A,Rain,Light Rain,0,2013-10-07 21:55:00
6:15 PM,80.6,71.6,74,29.82,10.0,NNW,3.5,-,N/A,,Mostly Cloudy,330,2013-10-07 22:15:00
6:35 PM,78.8,73.4,83,29.83,10.0,Calm,Calm,-,N/A,,Light Drizzle,0,2013-10-07 22:35:00
6:55 PM,78.8,73.4,83,29.83,10.0,NNW,3.5,-,N/A,,Light Drizzle,340,2013-10-07 22:55:00
7:15 PM,77.0,75.2,94,29.83,10.0,Calm,Calm,-,N/A,,Light Drizzle,0,2013-10-07 23:15:00
7:35 PM,77.0,75.2,94,29.84,10.0,Calm,Calm,-,N/A,,Clear,0,2013-10-07 23:35:00
7:55 PM,75.2,71.6,89,29.86,10.0,SE,5.8,-,N/A,,Mostly Cloudy,140,2013-10-07 23:55:00
8:15 PM,73.4,69.8,88,29.87,10.0,SE,5.8,-,N/A,,Overcast,130,2013-10-08 00:15:00
8:35 PM,73.4,69.8,88,29.87,10.0,Calm,Calm,-,N/A,,Overcast,0,2013-10-08 00:35:00
8:55 PM,73.4,71.6,94,29.87,10.0,Calm,Calm,-,N/A,,Overcast,0,2013-10-08 00:55:00
9:15 PM,73.4,69.8,88,29.88,10.0,Calm,Calm,-,N/A,,Overcast,0,2013-10-08 01:15:00
9:35 PM,71.6,69.8,94,29.89,10.0,Calm,Calm,-,N/A,,Scattered Clouds,0,2013-10-08 01:35:00
9:55 PM,71.6,71.6,100,29.89,10.0,Calm,Calm,-,N/A,,Mostly Cloudy,0,2013-10-08 01:55:00
10:15 PM,71.6,71.6,100,29.88,10.0,Calm,Calm,-,N/A,,Scattered Clouds,0,2013-10-08 02:15:00
10:35 PM,71.6,71.6,100,29.88,10.0,WNW,3.5,-,N/A,,Clear,290,2013-10-08 02:35:00
10:55 PM,71.6,71.6,100,29.88,10.0,NW,5.8,-,N/A,,Clear,320,2013-10-08 02:55:00
11:15 PM,73.4,55.4,53,29.89,10.0,NW,4.6,-,N/A,,Clear,320,2013-10-08 03:15:00
11:35 PM,73.4,68.0,83,29.90,10.0,Calm,Calm,-,N/A,,Scattered Clouds,0,2013-10-08 03:35:00
11:55 PM,71.6,69.8,94,29.90,10.0,Calm,Calm,-,N/A,,Mostly Cloudy,0,2013-10-08 03:55:00